Haleyville, AL

9:47 AM CST on February 20, 2017 (GMT -0600)
Haleyville

Weather History for K1M4 - March, 2013

Change the Weather History Date:

Sunday, March 10, 2013

  Actual Average (KJFX) Record (KJFX)
Temperature  
Mean Temperature 62 °F -  
Max Temperature 72 °F 64 °F 86 °F (1974)
Min Temperature 52 °F 36 °F 20 °F (1969)
Degree Days  
Heating Degree Days 3    
Growing Degree Days 12 (Base 50)    
Moisture  
Dew Point 47 °F    
Average Humidity 61    
Maximum Humidity 90    
Minimum Humidity 38    
Precipitation  
Precipitation 0.21 in - - ()
Sea Level Pressure  
Sea Level Pressure 29.98 in    
Wind  
Wind Speed 14 mph (SSE)    
Max Wind Speed 24 mph    
Max Gust Speed 33 mph    
Visibility 8 miles    
Events Rain , Thunderstorm    
Averages and records for this station are not official NWS values.
T = Trace of Precipitation, MM = Missing Value Source: NWS Daily Summary

Daily Weather History Graph

Daily Weather History Graph

Search for Another Location

Airport or City:

Trip Planner

Search our weather history database for the weather conditions in past years. The results will help you decide how hot, cold, wet, or windy it might be!

Date:

Astronomy

Mar. 10, 2013 Rise Set
Actual Time 7:07 AM CDT 6:54 PM CDT
Civil Twilight 6:42 AM CDT 7:19 PM CDT
Nautical Twilight 6:13 AM CDT 7:48 PM CDT
Astronomical Twilight 5:44 AM CDT 8:17 PM CDT
Moon 6:05 AM CDT (3/10) 6:02 PM CDT (3/10)
Length of Visible Light 12h 37m
Length of Day
11h 47m
Waning Crescent, 2% of the Moon is Illuminated
Mar 10
Waning Crescent
Mar 11
New
Mar 19
First Quarter
Mar 27
Full
Apr 2
Last Quarter

Hourly Weather History & Observations

Time (CDT) Temp. Dew Point Humidity Pressure Visibility Wind Dir Wind Speed Gust Speed Precip Events Conditions
12:56 AM 55.9 °F 34.9 °F 45% 30.11 in 10.0 mi SSE 11.5 mph 18.4 mph N/A   Clear
1:56 AM 54.9 °F 34.9 °F 47% 30.10 in 10.0 mi ESE 3.5 mph - N/A   Clear
3:56 AM 54.9 °F 34.0 °F 45% 30.11 in 10.0 mi South 8.1 mph - N/A   Clear
4:56 AM 54.0 °F 32.9 °F 45% 30.12 in 10.0 mi SSE 9.2 mph - N/A   Clear
5:56 AM 52.9 °F 32.0 °F 45% 30.11 in 10.0 mi South 10.4 mph - N/A   Clear
7:56 AM 52.9 °F 32.9 °F 47% 30.10 in 10.0 mi SE 11.5 mph - N/A   Clear
8:56 AM 54.9 °F 34.9 °F 47% 30.08 in 10.0 mi SSE 17.3 mph 21.9 mph N/A   Clear
9:56 AM 59.9 °F 37.9 °F 44% 30.07 in 10.0 mi SSE 17.3 mph 24.2 mph N/A   Clear
10:56 AM 63.0 °F 38.8 °F 41% 30.07 in 10.0 mi South 17.3 mph 24.2 mph N/A   Clear
11:56 AM 63.9 °F 41.0 °F 43% 30.06 in 10.0 mi SSE 16.1 mph 26.5 mph N/A   Clear
12:56 PM 66.9 °F 43.0 °F 42% 30.05 in 10.0 mi South 16.1 mph 25.3 mph N/A   Clear
1:56 PM 68.9 °F 45.0 °F 42% 30.03 in 10.0 mi South 13.8 mph 24.2 mph N/A   Clear
2:56 PM 70.9 °F 45.9 °F 41% 30.02 in 10.0 mi SSW 20.7 mph 31.1 mph N/A   Clear
3:30 PM 69.8 °F 46.4 °F 43% 29.94 in 10.0 mi SE 13.8 mph 23.0 mph N/A   Partly Cloudy
3:56 PM 72.9 °F 45.9 °F 38% 29.96 in 10.0 mi SSE 18.4 mph 32.2 mph N/A   Clear
4:56 PM 72.0 °F 47.8 °F 42% 29.94 in 10.0 mi South 21.9 mph 29.9 mph N/A   Clear
5:56 PM 68.9 °F 48.9 °F 49% 29.92 in 10.0 mi South 20.7 mph 26.5 mph N/A   Partly Cloudy
6:56 PM 68.0 °F 48.9 °F 50% 29.92 in 10.0 mi SSE 13.8 mph 21.9 mph N/A   Scattered Clouds
7:56 PM 68.0 °F 47.8 °F 48% 29.91 in 10.0 mi SSE 19.6 mph 29.9 mph N/A   Mostly Cloudy
8:41 PM 64.4 °F 51.8 °F 64% 29.88 in 7.0 mi South 24.2 mph 33.4 mph 0.00 in Rain Light Rain
8:56 PM 63.9 °F 50.9 °F 63% 29.94 in 10.0 mi SSE 15.0 mph 31.1 mph 0.00 in Rain Light Rain
9:25 PM 62.6 °F 53.6 °F 72% 29.89 in 6.0 mi SSE 18.4 mph 27.6 mph 0.01 in Rain Light Rain
9:56 PM 59.9 °F 54.0 °F 81% 29.94 in 4.0 mi SSE 16.1 mph 25.3 mph 0.03 in Rain Rain
10:05 PM 60.8 °F 55.4 °F 82% 29.91 in 2.5 mi South 19.6 mph 24.2 mph 0.02 in Rain Heavy Rain
10:13 PM 59.0 °F 55.4 °F 88% 29.91 in 3.0 mi SSE 15.0 mph 24.2 mph 0.03 in Rain Rain
10:22 PM 59.0 °F 55.4 °F 88% 29.91 in 4.0 mi SSE 13.8 mph 20.7 mph 0.05 in Rain Rain
10:29 PM 59.0 °F 55.4 °F 88% 29.90 in 3.0 mi SSE 13.8 mph 23.0 mph 0.06 in Rain Heavy Rain
10:56 PM 59.0 °F 55.9 °F 90% 29.94 in 4.0 mi SSE 13.8 mph - 0.11 in Rain Rain
11:56 PM 59.0 °F 55.9 °F 90% 29.93 in 3.0 mi SSE 13.8 mph 19.6 mph 0.07 in Rain Heavy Rain
12:10 AM 59.0 °F 55.4 °F 88% 29.89 in 3.0 mi South 12.7 mph - 0.03 in Rain , Thunderstorm Thunderstorms and Rain
12:19 AM 59.0 °F 55.4 °F 88% 29.89 in 2.5 mi SSE 13.8 mph 24.2 mph 0.05 in Rain Heavy Rain
12:24 AM 59.0 °F 55.4 °F 88% 29.90 in 3.0 mi South 13.8 mph 20.7 mph 0.06 in Rain Heavy Rain
12:41 AM 57.2 °F 53.6 °F 88% 29.89 in 2.5 mi SSE 13.8 mph 20.7 mph 0.09 in Rain Heavy Rain